Location: Noverd
(38.0910°N, 121.6877°W)
Time: 05:34:35
(UTC+00:00)

Cosmos 1486 Rocket - Pass Details

Date: 13 February 2026
Orbit: 755 x 778 km, 74.1° (Epoch: 5 March)

Event Time Altitude Azimuth Distance (km) Brightness Sun altitude
Exits shadow 12:36:43 59° 149° (SSE) 892 4.3 -28.5°
Maximum altitude 12:37:26 67° 105° (ESE) 842 4.2 -28.4°
Drops below altitude 10° 12:42:42 10° 24° (NNE) 2,333 6.8 -27.4°
Sets 12:45:06 0° 22° (NNE) 3,262 7.6 -26.9°
